Flag for China Weather past 2 weeks in Dalian, Liaoning, China

Now
68 °F

Clear.


Feels Like: 68 °F
Forecast: 66 / 77 °F
Wind: 1 mph from North

Location: Dalian Airport

Current Time: May 26, 2015 at 1:43:17 AM

Latest Report: May 26, 2015 at 1:00 AM


Visibility: 10 mi

Pressure: 29.80 "Hg

Humidity: 38%

Dew point: 41 °F

Location of DalianLocation

Historic Weather in Dalian — Graph

°F

Dalian temperature yesterday

Maximum temperature yesterday: 88 °F (at 1:00 PM)
Minimum temperature yesterday: 61 °F (at 2:30 AM)
Average temperature yesterday: 75 °F

Past Weeks' High & Low Weather Summary

 TemperatureHumidityPressure
High88 °F (May 25, 1:00 PM)100% (May 11, 1:00 PM)29.98 "Hg (May 11, 1:00 PM)
Low46 °F (May 11, 11:00 PM)13% (May 25, 4:30 PM)29.33 "Hg (May 12, 11:30 AM)
Average67 °F45%29.73 "Hg
* Reported Midnight between May 10 and May 11 — May 26 12:30 AM, Dalian, Weather by CustomWeather, © 2015

Note: Actual official high and low records may vary slightly from our data, if they occured in-between our weather recording intervals... More about our weather records

Advertising

Dalian weather history for previous 24 hours

 ConditionsComfort  
Time TempWeatherWind HumidityBarometerVisibility
12:30 AM
Tue, May 26
68 °FClear.1 mph38%29.80 "Hg10 mi
12:00 AM70 °FClear.1 mph38%29.80 "Hg10 mi
11:30 PM
Mon, May 25
70 °FClear.3 mph35%29.80 "Hg10 mi
11:00 PM70 °FClear.6 mph38%29.80 "Hg10 mi
10:30 PM70 °FClear.6 mph38%29.80 "Hg10 mi
10:00 PM70 °FPassing clouds.6 mph35%29.80 "HgN/A
9:30 PM72 °FClear.6 mph33%29.80 "Hg10 mi
9:00 PM72 °FPassing clouds.3 mph36%29.80 "HgN/A
8:30 PM72 °FPassing clouds.3 mph38%29.80 "HgN/A
8:00 PM73 °FPassing clouds.3 mph36%29.80 "HgN/A
7:30 PM73 °FPassing clouds.3 mph33%29.77 "HgN/A
7:00 PM77 °FPassing clouds.3 mph24%29.77 "HgN/A
6:30 PM79 °FPassing clouds.3 mph21%29.74 "HgN/A
6:00 PM81 °FPassing clouds.6 mph21%29.74 "HgN/A
5:30 PM82 °FPassing clouds.10 mph15%29.74 "HgN/A
5:00 PM84 °FPassing clouds.8 mph13%29.74 "HgN/A
4:30 PM84 °FPassing clouds.10 mph13%29.74 "HgN/A
4:00 PM84 °FPassing clouds.10 mph14%29.74 "HgN/A
3:30 PM86 °FPassing clouds.8 mph14%29.74 "HgN/A
3:00 PM86 °FPassing clouds.8 mph17%29.77 "HgN/A
2:30 PM86 °FPassing clouds.10 mph19%29.77 "HgN/A
2:00 PM88 °FPassing clouds.10 mph18%29.77 "HgN/A
1:30 PM86 °FPassing clouds.13 mph18%29.77 "HgN/A
1:00 PM88 °FPassing clouds.10 mph18%29.77 "HgN/A
12:30 PM86 °FPassing clouds.10 mph20%29.77 "HgN/A
12:00 PM86 °FPassing clouds.10 mph18%29.77 "HgN/A
11:30 AM86 °FPassing clouds.8 mph19%29.80 "HgN/A
11:00 AM86 °FPassing clouds.6 mph18%29.80 "HgN/A
10:30 AM86 °FPassing clouds.8 mph18%29.80 "HgN/A
10:00 AM84 °FSunny.13 mph16%29.80 "Hg10 mi
9:30 AM82 °FPassing clouds.8 mph21%29.80 "HgN/A
9:00 AM82 °FSunny.8 mph23%29.80 "Hg10 mi
8:30 AM81 °FPassing clouds.6 mph26%29.80 "HgN/A
8:00 AM79 °FSunny.1 mph30%29.80 "Hg10 mi
7:30 AM75 °FSunny.1 mph39%29.80 "Hg10 mi
7:00 AM72 °FSunny.No wind41%29.80 "Hg10 mi
6:30 AM68 °FSunny.1 mph43%29.77 "Hg10 mi
6:00 AM66 °FSunny.1 mph49%29.77 "Hg10 mi
5:30 AM63 °FSunny.1 mph45%29.77 "Hg10 mi
5:00 AM61 °FSunny.1 mph48%29.77 "Hg10 mi
4:30 AM61 °FClear.1 mph48%29.77 "Hg10 mi
4:00 AM61 °FClear.No wind45%29.77 "Hg10 mi
3:30 AM61 °FClear.1 mph42%29.77 "Hg10 mi
3:00 AM63 °FClear.1 mph39%29.77 "Hg10 mi
2:30 AM61 °FClear.1 mph42%29.77 "Hg10 mi
2:00 AM63 °FClear.1 mph39%29.77 "Hg10 mi
1:30 AM63 °FClear.1 mph37%29.77 "Hg10 mi
1:00 AM63 °FClear.1 mph34%29.77 "Hg10 mi
Weather by CustomWeather, © 2015

See weather overviewHow to use our weather pages